| time (UTC) | temp C | wind direction | speed KPH | gust KPH | rain 1hr cm | rain 24hr cm | rain mn cm | humidity % | barometer mb |
| 20260903222703 | 31 | 120 | 3.2 | 9.7 | 0.00 | 0.00 | 0.00 | 19 | 1016.6 |
| 20260903222018 | 31 | 128 | 3.2 | 9.7 | 0.00 | 0.00 | 0.00 | 20 | 1016.6 |
| 20260903220903 | 31 | 118 | 3.2 | 11.3 | 0.00 | 0.00 | 0.00 | 20 | 1016.9 |
| 20260903220003 | 32 | 123 | 3.2 | 12.9 | 0.00 | 0.00 | 0.00 | 20 | 1016.9 |
| 20260903215403 | 32 | 120 | 3.2 | 11.3 | 0.00 | 0.00 | 0.00 | 19 | 1016.9 |
| 20260903214503 | 32 | 193 | 3.2 | 11.3 | 0.00 | 0.00 | 0.00 | 19 | 1017.0 |
| 20260903213603 | 32 | 210 | 1.6 | 8.0 | 0.00 | 0.00 | 0.00 | 18 | 1016.9 |
| 20260903212703 | 31 | 188 | 1.6 | 6.4 | 0.00 | 0.00 | 0.00 | 22 | 1016.9 |
| 20260903211803 | 31 | 214 | 3.2 | 9.7 | 0.00 | 0.00 | 0.00 | 22 | 1017.0 |
| 20260903210903 | 32 | 172 | 1.6 | 9.7 | 0.00 | 0.00 | 0.00 | 22 | 1017.2 |
| 20260903210216 | 32 | 88 | 3.2 | 6.4 | 0.00 | 0.00 | 0.00 | 22 | 1017.1 |
| 20260903205403 | 32 | 325 | 1.6 | 6.4 | 0.00 | 0.00 | 0.00 | 21 | 1017.3 |
| 20260903204503 | 32 | 161 | 1.6 | 9.7 | 0.00 | 0.00 | 0.00 | 22 | 1017.6 |
| 20260903203603 | 32 | 197 | 1.6 | 9.7 | 0.00 | 0.00 | 0.00 | 21 | 1017.7 |
| 20260903202917 | 32 | 227 | 0.0 | 4.8 | 0.00 | 0.00 | 0.00 | 22 | 1017.6 |
| 20260903201803 | 32 | 127 | 3.2 | 11.3 | 0.00 | 0.00 | 0.00 | 21 | 1017.9 |
| 20260903200903 | 32 | 81 | 3.2 | 6.4 | 0.00 | 0.00 | 0.00 | 22 | 1018.0 |
| 20260903200003 | 32 | 79 | 1.6 | 8.0 | 0.00 | 0.00 | 0.00 | 22 | 1018.0 |
| 20260903195403 | 32 | 108 | 1.6 | 6.4 | 0.00 | 0.00 | 0.00 | 21 | 1018.2 |
| 20260903194503 | 32 | 125 | 3.2 | 11.3 | 0.00 | 0.00 | 0.00 | 24 | 1018.3 |
| 20260903193818 | 32 | 212 | 1.6 | 8.0 | 0.00 | 0.00 | 0.00 | 24 | 1018.3 |
| 20260903192703 | 32 | 109 | 3.2 | 9.7 | 0.00 | 0.00 | 0.00 | 23 | 1018.4 |
| 20260903191803 | 32 | 193 | 3.2 | 9.7 | 0.00 | 0.00 | 0.00 | 25 | 1018.6 |
| 20260903190903 | 32 | 68 | 1.6 | 8.0 | 0.00 | 0.00 | 0.00 | 23 | 1018.6 |
| 20260903190003 | 31 | 104 | 4.8 | 11.3 | 0.00 | 0.00 | 0.00 | 24 | 1018.6 |
| 20260903185403 | 31 | 87 | 3.2 | 11.3 | 0.00 | 0.00 | 0.00 | 22 | 1018.6 |
| 20260903184503 | 31 | 317 | 1.6 | 6.4 | 0.00 | 0.00 | 0.00 | 29 | 1018.8 |
| 20260903183817 | 31 | 72 | 1.6 | 6.4 | 0.00 | 0.00 | 0.00 | 22 | 1018.9 |
| 20260903182703 | 31 | 73 | 3.2 | 8.0 | 0.00 | 0.00 | 0.00 | 24 | 1019.2 |
| 20260903181803 | 30 | 66 | 1.6 | 6.4 | 0.00 | 0.00 | 0.00 | 25 | 1019.3 |
| 20260903180903 | 30 | 266 | 1.6 | 4.8 | 0.00 | 0.00 | 0.00 | 25 | 1019.4 |
| 20260903180219 | 30 | 247 | 1.6 | 4.8 | 0.00 | 0.00 | 0.00 | 25 | 1019.4 |
| 20260903175618 | 31 | 243 | 1.6 | 4.8 | 0.00 | 0.00 | 0.00 | 24 | 1019.5 |
| 20260903174503 | 31 | 80 | 1.6 | 4.8 | 0.00 | 0.00 | 0.00 | 26 | 1019.5 |
| 20260903173603 | 31 | 142 | 1.6 | 3.2 | 0.00 | 0.00 | 0.00 | 24 | 1019.9 |
| 20260903172703 | 31 | 108 | 1.6 | 4.8 | 0.00 | 0.00 | 0.00 | 27 | 1019.9 |
| 20260903171803 | 31 | 95 | 1.6 | 6.4 | 0.00 | 0.00 | 0.00 | 26 | 1019.9 |
| 20260903170903 | 30 | 111 | 0.0 | 4.8 | 0.00 | 0.00 | 0.00 | 28 | 1019.9 |
| 20260903170218 | 30 | 0 | 0.0 | 0.0 | 0.00 | 0.00 | 0.00 | 33 | 1019.9 |
| 20260903165403 | 28 | 143 | 0.0 | 3.2 | 0.00 | 0.00 | 0.00 | 30 | 1019.9 |
| 20260903164503 | 28 | 186 | 0.0 | 1.6 | 0.00 | 0.00 | 0.00 | 30 | 1019.9 |
| 20260903163603 | 27 | 243 | 0.0 | 3.2 | 0.00 | 0.00 | 0.00 | 36 | 1019.9 |
| 20260903162703 | 27 | 275 | 0.0 | 3.2 | 0.00 | 0.00 | 0.00 | 32 | 1020.0 |
| 20260903161803 | 27 | 0 | 0.0 | 0.0 | 0.00 | 0.00 | 0.00 | 36 | 1020.0 |
| 20260903160903 | 27 | 0 | 0.0 | 0.0 | 0.00 | 0.00 | 0.00 | 33 | 1019.9 |
| 20260903160003 | 28 | 0 | 0.0 | 0.0 | 0.00 | 0.00 | 0.00 | 32 | 1019.9 |
| 20260903155403 | 28 | 71 | 0.0 | 4.8 | 0.00 | 0.00 | 0.00 | 34 | 1019.9 |
| 20260903154503 | 27 | 111 | 1.6 | 4.8 | 0.00 | 0.00 | 0.00 | 33 | 1020.0 |
| 20260903153603 | 27 | 70 | 0.0 | 3.2 | 0.00 | 0.00 | 0.00 | 32 | 1020.1 |
| 20260903152703 | 26 | 0 | 0.0 | 0.0 | 0.00 | 0.00 | 0.00 | 36 | 1020.0 |
| 20260903152019 | 26 | 0 | 0.0 | 0.0 | 0.00 | 0.00 | 0.00 | 35 | 1020.2 |
| 20260903150903 | 23 | 0 | 0.0 | 0.0 | 0.00 | 0.00 | 0.00 | 37 | 1020.1 |
| 20260903150003 | 23 | 0 | 0.0 | 0.0 | 0.00 | 0.00 | 0.00 | 43 | 1020.1 |
| 20260903145403 | 22 | 0 | 0.0 | 0.0 | 0.00 | 0.00 | 0.00 | 42 | 1020.1 |
| 20260903144503 | 22 | 0 | 0.0 | 0.0 | 0.00 | 0.00 | 0.00 | 40 | 1020.2 |
| 20260903143603 | 21 | 0 | 0.0 | 0.0 | 0.00 | 0.00 | 0.00 | 46 | 1020.1 |
| 20260903142703 | 20 | 0 | 0.0 | 0.0 | 0.00 | 0.00 | 0.00 | 46 | 1020.3 |
| 20260903141803 | 20 | 0 | 0.0 | 0.0 | 0.00 | 0.00 | 0.00 | 46 | 1020.1 |
| 20260903140903 | 18 | 0 | 0.0 | 0.0 | 0.00 | 0.00 | 0.00 | 50 | 1020.0 |
| 20260903140003 | 18 | 0 | 0.0 | 1.6 | 0.00 | 0.00 | 0.00 | 52 | 1020.1 |
| 20260903135403 | 18 | 348 | 0.0 | 1.6 | 0.00 | 0.00 | 0.00 | 52 | 1020.1 |
| 20260903134503 | 17 | 354 | 0.0 | 1.6 | 0.00 | 0.00 | 0.00 | 50 | 1020.1 |
| 20260903133603 | 17 | 71 | 0.0 | 3.2 | 0.00 | 0.00 | 0.00 | 52 | 1020.0 |
| 20260903132703 | 16 | 59 | 1.6 | 3.2 | 0.00 | 0.00 | 0.00 | 49 | 1019.7 |
| 20260903132018 | 16 | 27 | 1.6 | 4.8 | 0.00 | 0.00 | 0.00 | 51 | 1019.6 |
| 20260903130903 | 15 | 313 | 1.6 | 4.8 | 0.00 | 0.00 | 0.00 | 54 | 1019.6 |
| 20260903130003 | 15 | 71 | 0.0 | 3.2 | 0.00 | 0.00 | 0.00 | 54 | 1019.4 |
| 20260903125403 | 15 | 66 | 0.0 | 3.2 | 0.00 | 0.00 | 0.00 | 55 | 1019.2 |
| 20260903124503 | 15 | 281 | 0.0 | 3.2 | 0.00 | 0.00 | 0.00 | 54 | 1019.2 |
| 20260903123819 | 16 | 276 | 0.0 | 3.2 | 0.00 | 0.00 | 0.00 | 54 | 1019.1 |
| 20260903122918 | 16 | 291 | 1.6 | 6.4 | 0.00 | 0.00 | 0.00 | 54 | 1018.9 |
| 20260903122018 | 16 | 296 | 0.0 | 1.6 | 0.00 | 0.00 | 0.00 | 54 | 1018.8 |
| 20260903120903 | 16 | 296 | 0.0 | 3.2 | 0.00 | 0.00 | 0.00 | 53 | 1018.6 |
| 20260903120216 | 16 | 297 | 0.0 | 4.8 | 0.00 | 0.00 | 0.00 | 54 | 1018.6 |
| 20260903115616 | 16 | 291 | 1.6 | 4.8 | 0.00 | 0.00 | 0.00 | 53 | 1018.6 |
| 20260903114503 | 16 | 323 | 1.6 | 4.8 | 0.00 | 0.00 | 0.00 | 55 | 1018.3 |
| 20260903113603 | 16 | 296 | 0.0 | 3.2 | 0.00 | 0.00 | 0.00 | 54 | 1018.6 |
| 20260903112703 | 16 | 294 | 0.0 | 1.6 | 0.00 | 0.00 | 0.00 | 52 | 1018.4 |
| 20260903111803 | 16 | 294 | 0.0 | 3.2 | 0.00 | 0.00 | 0.00 | 54 | 1018.6 |
| 20260903110903 | 16 | 304 | 1.6 | 4.8 | 0.00 | 0.00 | 0.00 | 57 | 1018.5 |
| 20260903110003 | 16 | 70 | 0.0 | 3.2 | 0.00 | 0.00 | 0.00 | 56 | 1018.4 |
| 20260903105403 | 16 | 80 | 0.0 | 1.6 | 0.00 | 0.00 | 0.00 | 55 | 1018.3 |
| 20260903104503 | 16 | 80 | 0.0 | 3.2 | 0.00 | 0.00 | 0.00 | 54 | 1018.4 |
| 20260903103603 | 16 | 80 | 0.0 | 1.6 | 0.00 | 0.00 | 0.00 | 53 | 1018.2 |
| 20260903102703 | 16 | 81 | 0.0 | 4.8 | 0.00 | 0.00 | 0.00 | 54 | 1018.2 |
| 20260903101803 | 16 | 74 | 1.6 | 4.8 | 0.00 | 0.00 | 0.00 | 55 | 1018.1 |
| 20260903100903 | 16 | 76 | 0.0 | 3.2 | 0.00 | 0.00 | 0.00 | 58 | 1018.2 |
| 20260903100003 | 16 | 81 | 1.6 | 4.8 | 0.00 | 0.00 | 0.00 | 57 | 1018.6 |
| 20260903095403 | 16 | 82 | 1.6 | 4.8 | 0.00 | 0.00 | 0.00 | 58 | 1018.3 |
| 20260903094718 | 16 | 78 | 1.6 | 3.2 | 0.00 | 0.00 | 0.00 | 57 | 1018.3 |
| 20260903093603 | 16 | 56 | 0.0 | 3.2 | 0.00 | 0.00 | 0.00 | 58 | 1018.3 |
| 20260903092703 | 16 | 0 | 0.0 | 0.0 | 0.00 | 0.00 | 0.00 | 58 | 1018.4 |
| 20260903091803 | 17 | 0 | 0.0 | 0.0 | 0.00 | 0.00 | 0.00 | 58 | 1018.4 |
| 20260903090903 | 17 | 0 | 0.0 | 0.0 | 0.00 | 0.00 | 0.00 | 57 | 1018.4 |
| 20260903090003 | 17 | 290 | 0.0 | 3.2 | 0.00 | 0.00 | 0.00 | 55 | 1018.4 |
| 20260903085403 | 17 | 0 | 0.0 | 0.0 | 0.00 | 0.00 | 0.00 | 53 | 1018.4 |
| 20260903084503 | 17 | 55 | 0.0 | 1.6 | 0.00 | 0.00 | 0.00 | 55 | 1018.4 |
| 20260903083603 | 17 | 54 | 1.6 | 3.2 | 0.00 | 0.00 | 0.00 | 54 | 1018.4 |
| 20260903082917 | 18 | 313 | 1.6 | 11.3 | 0.00 | 0.00 | 0.00 | 54 | 1018.6 |
| 20260903081803 | 18 | 55 | 0.0 | 3.2 | 0.00 | 0.00 | 0.00 | 53 | 1018.4 |
| 20260903080903 | 18 | 49 | 0.0 | 4.8 | 0.00 | 0.00 | 0.00 | 52 | 1018.5 |
| 20260903080003 | 18 | 280 | 0.0 | 1.6 | 0.00 | 0.00 | 0.00 | 52 | 1018.4 |
| 20260903075403 | 19 | 0 | 0.0 | 1.6 | 0.00 | 0.00 | 0.00 | 51 | 1018.4 |
| 20260903074503 | 19 | 280 | 0.0 | 1.6 | 0.00 | 0.00 | 0.00 | 50 | 1018.5 |
| 20260903073603 | 19 | 281 | 1.6 | 4.8 | 0.00 | 0.00 | 0.00 | 50 | 1018.5 |
| 20260903072916 | 20 | 282 | 1.6 | 4.8 | 0.00 | 0.00 | 0.00 | 50 | 1018.6 |
| 20260903071803 | 20 | 280 | 0.0 | 3.2 | 0.00 | 0.00 | 0.00 | 49 | 1018.5 |
| 20260903070903 | 20 | 283 | 0.0 | 4.8 | 0.00 | 0.00 | 0.00 | 49 | 1018.5 |
| 20260903070219 | 20 | 293 | 0.0 | 4.8 | 0.00 | 0.00 | 0.00 | 48 | 1018.5 |
| 20260903065403 | 20 | 298 | 0.0 | 1.6 | 0.00 | 0.00 | 0.00 | 48 | 1018.5 |
| 20260903064503 | 20 | 298 | 0.0 | 1.6 | 0.00 | 0.00 | 0.00 | 47 | 1018.4 |
| 20260903063603 | 21 | 298 | 0.0 | 3.2 | 0.00 | 0.00 | 0.00 | 46 | 1018.5 |
| 20260903062703 | 21 | 298 | 0.0 | 3.2 | 0.00 | 0.00 | 0.00 | 45 | 1018.6 |
| 20260903061803 | 21 | 291 | 1.6 | 6.4 | 0.00 | 0.00 | 0.00 | 45 | 1018.5 |
| 20260903061119 | 22 | 291 | 3.2 | 14.5 | 0.00 | 0.00 | 0.00 | 44 | 1018.5 |
| 20260903060004 | 22 | 290 | 3.2 | 17.7 | 0.00 | 0.00 | 0.00 | 43 | 1018.3 |
| 20260903055403 | 22 | 292 | 4.8 | 17.7 | 0.00 | 0.00 | 0.00 | 43 | 1018.2 |
| 20260903054503 | 22 | 296 | 4.8 | 16.1 | 0.00 | 0.00 | 0.00 | 43 | 1018.4 |
| 20260903053603 | 22 | 285 | 6.4 | 14.5 | 0.00 | 0.00 | 0.00 | 43 | 1018.5 |
| 20260903052703 | 22 | 290 | 4.8 | 14.5 | 0.00 | 0.00 | 0.00 | 42 | 1018.3 |
| 20260903051803 | 22 | 289 | 4.8 | 14.5 | 0.00 | 0.00 | 0.00 | 42 | 1018.4 |
| 20260903050903 | 22 | 293 | 4.8 | 12.9 | 0.00 | 0.00 | 0.00 | 41 | 1018.4 |
| 20260903050003 | 22 | 290 | 6.4 | 17.7 | 0.00 | 0.00 | 0.00 | 40 | 1018.3 |
| 20260903045403 | 22 | 290 | 4.8 | 17.7 | 0.00 | 0.00 | 0.00 | 40 | 1018.1 |
| 20260903044717 | 22 | 292 | 4.8 | 16.1 | 0.00 | 0.00 | 0.00 | 40 | 1018.2 |
| 20260903043603 | 22 | 291 | 1.6 | 8.0 | 0.00 | 0.00 | 0.00 | 38 | 1018.2 |
| 20260903042703 | 22 | 19 | 0.0 | 1.6 | 0.00 | 0.00 | 0.00 | 37 | 1018.2 |
| 20260903041803 | 22 | 0 | 0.0 | 1.6 | 0.00 | 0.00 | 0.00 | 36 | 1018.1 |
| 20260903040903 | 23 | 0 | 0.0 | 1.6 | 0.00 | 0.00 | 0.00 | 36 | 1018.1 |
| 20260903040217 | 23 | 69 | 0.0 | 3.2 | 0.00 | 0.00 | 0.00 | 35 | 1018.1 |
| 20260903035403 | 23 | 92 | 0.0 | 3.2 | 0.00 | 0.00 | 0.00 | 34 | 1018.2 |
| 20260903034503 | 23 | 312 | 0.0 | 4.8 | 0.00 | 0.00 | 0.00 | 34 | 1018.3 |
| 20260903033603 | 23 | 234 | 1.6 | 6.4 | 0.00 | 0.00 | 0.00 | 33 | 1018.0 |
| 20260903032703 | 23 | 203 | 0.0 | 3.2 | 0.00 | 0.00 | 0.00 | 33 | 1018.1 |
| 20260903031803 | 23 | 204 | 0.0 | 3.2 | 0.00 | 0.00 | 0.00 | 34 | 1018.2 |
| 20260903031118 | 23 | 176 | 0.0 | 3.2 | 0.00 | 0.00 | 0.00 | 33 | 1018.0 |
| 20260903030003 | 23 | 126 | 0.0 | 4.8 | 0.00 | 0.00 | 0.00 | 33 | 1017.9 |
| 20260903025403 | 23 | 163 | 0.0 | 3.2 | 0.00 | 0.00 | 0.00 | 33 | 1017.9 |
| 20260903024503 | 23 | 174 | 0.0 | 1.6 | 0.00 | 0.00 | 0.00 | 33 | 1017.7 |
| 20260903023603 | 23 | 165 | 0.0 | 1.6 | 0.00 | 0.00 | 0.00 | 33 | 1017.7 |
| 20260903022703 | 24 | 0 | 0.0 | 0.0 | 0.00 | 0.00 | 0.00 | 33 | 1017.5 |
| 20260903021803 | 25 | 0 | 0.0 | 0.0 | 0.00 | 0.00 | 0.00 | 32 | 1017.4 |
| 20260903020903 | 25 | 0 | 0.0 | 0.0 | 0.00 | 0.00 | 0.00 | 31 | 1017.0 |
| 20260903020003 | 26 | 0 | 0.0 | 0.0 | 0.00 | 0.00 | 0.00 | 31 | 1017.1 |
| 20260903015403 | 26 | 98 | 0.0 | 1.6 | 0.00 | 0.00 | 0.00 | 29 | 1017.1 |
| 20260903014503 | 26 | 123 | 0.0 | 3.2 | 0.00 | 0.00 | 0.00 | 27 | 1017.1 |
| 20260903013603 | 27 | 116 | 0.0 | 1.6 | 0.00 | 0.00 | 0.00 | 28 | 1017.0 |
| 20260903012703 | 27 | 114 | 1.6 | 4.8 | 0.00 | 0.00 | 0.00 | 26 | 1016.9 |
| 20260903011803 | 27 | 102 | 1.6 | 4.8 | 0.00 | 0.00 | 0.00 | 26 | 1016.9 |
| 20260903010903 | 28 | 126 | 1.6 | 4.8 | 0.00 | 0.00 | 0.00 | 25 | 1017.0 |
| 20260903010003 | 28 | 110 | 1.6 | 8.0 | 0.00 | 0.00 | 0.00 | 26 | 1016.7 |
| 20260903005403 | 28 | 103 | 1.6 | 9.7 | 0.00 | 0.00 | 0.00 | 26 | 1016.9 |
| 20260903004503 | 28 | 108 | 3.2 | 11.3 | 0.00 | 0.00 | 0.00 | 26 | 1016.8 |
| 20260903003819 | 29 | 104 | 3.2 | 11.3 | 0.00 | 0.00 | 0.00 | 25 | 1016.9 |
| 20260903002918 | 29 | 86 | 3.2 | 6.4 | 0.00 | 0.00 | 0.00 | 25 | 1016.7 |
| 20260903001803 | 30 | 111 | 3.2 | 11.3 | 0.00 | 0.00 | 0.00 | 24 | 1016.6 |
| 20260903000903 | 30 | 108 | 3.2 | 9.7 | 0.00 | 0.00 | 0.00 | 24 | 1016.6 |
| 20260903000003 | 30 | 105 | 3.2 | 9.7 | 0.00 | 0.00 | 0.00 | 24 | 1016.8 |
| 20260902235403 | 30 | 123 | 3.2 | 9.7 | 0.00 | 0.00 | 0.00 | 24 | 1016.8 |
| 20260902234503 | 30 | 155 | 1.6 | 11.3 | 0.00 | 0.00 | 0.00 | 22 | 1016.8 |
| 20260902233603 | 31 | 149 | 1.6 | 6.4 | 0.00 | 0.00 | 0.00 | 23 | 1016.9 |
| 20260902232918 | 31 | 122 | 1.6 | 6.4 | 0.00 | 0.00 | 0.00 | 24 | 1016.8 |
| 20260902231803 | 31 | 189 | 1.6 | 8.0 | 0.00 | 0.00 | 0.00 | 24 | 1016.9 |
| 20260902230903 | 31 | 206 | 1.6 | 4.8 | 0.00 | 0.00 | 0.00 | 23 | 1016.9 |
| 20260902230003 | 31 | 220 | 1.6 | 4.8 | 0.00 | 0.00 | 0.00 | 25 | 1017.1 |
| 20260902225403 | 31 | 164 | 1.6 | 6.4 | 0.00 | 0.00 | 0.00 | 25 | 1017.0 |
| 20260902224503 | 31 | 142 | 1.6 | 6.4 | 0.00 | 0.00 | 0.00 | 23 | 1017.0 |
| 20260902223818 | 31 | 135 | 1.6 | 6.4 | 0.00 | 0.00 | 0.00 | 22 | 1017.1 |